TimeIST,TemperatureF,Dew PointF,Humidity,Sea Level PressureIn,VisibilityMPH,Wind Direction,Wind SpeedMPH,Gust SpeedMPH,PrecipitationIn,Events,Conditions,WindDirDegrees,DateUTC
12:00 AM,64.4,44.6,49,30.01,1.3,WNW,4.6,-,N/A,,Smoke,300,2012-11-19 18:30:00
12:30 AM,64.4,44.6,49,30.01,1.4,WNW,3.5,-,N/A,,Smoke,290,2012-11-19 19:00:00
1:00 AM,64.4,44.6,49,30.01,1.6,NNW,4.6,-,N/A,,Smoke,330,2012-11-19 19:30:00
1:30 AM,62.6,44.6,52,30.01,1.6,West,2.3,-,N/A,,Smoke,280,2012-11-19 20:00:00
2:00 AM,62.6,44.6,52,29.98,1.6,West,3.5,-,N/A,,Smoke,260,2012-11-19 20:30:00
2:30 AM,60.8,46.4,59,29.98,1.4,WNW,2.3,-,N/A,,Smoke,290,2012-11-19 21:00:00
3:00 AM,60.8,46.4,59,29.98,1.4,Calm,Calm,-,N/A,,Smoke,0,2012-11-19 21:30:00
3:30 AM,60.8,46.4,59,29.98,1.4,Calm,Calm,-,N/A,,Smoke,0,2012-11-19 22:00:00
4:00 AM,60.8,44.6,55,29.98,1.4,Calm,Calm,-,N/A,,Smoke,0,2012-11-19 22:30:00
4:30 AM,57.2,44.6,63,29.98,1.1,Calm,Calm,-,N/A,,Smoke,0,2012-11-19 23:00:00
5:00 AM,57.2,46.4,67,29.98,1.1,SW,3.5,-,N/A,,Smoke,230,2012-11-19 23:30:00
5:30 AM,55.4,46.4,72,29.98,1.1,SSW,3.5,-,N/A,,Smoke,210,2012-11-20 00:00:00
6:00 AM,55.4,46.4,72,30.01,1.1,SW,3.5,-,N/A,,Smoke,230,2012-11-20 00:30:00
6:30 AM,55.4,46.4,72,30.01,1.1,WSW,3.5,-,N/A,,Smoke,250,2012-11-20 01:00:00
7:00 AM,53.6,46.4,77,30.01,1.1,WSW,3.5,-,N/A,,Mist,250,2012-11-20 01:30:00
7:30 AM,53.6,46.4,77,30.01,1.1,WSW,3.5,-,N/A,,Mist,250,2012-11-20 02:00:00
8:00 AM,57.2,48.2,72,30.04,1.0,West,3.5,-,N/A,,Smoke,270,2012-11-20 02:30:00
8:30 AM,57.2,48.2,72,30.04,1.0,WSW,3.5,-,N/A,,Smoke,240,2012-11-20 03:00:00
9:00 AM,60.8,46.4,59,30.04,1.2,WSW,3.5,-,N/A,,Smoke,250,2012-11-20 03:30:00
9:30 AM,62.6,46.4,55,30.06,1.2,West,5.8,-,N/A,,Smoke,270,2012-11-20 04:00:00
10:00 AM,64.4,46.4,52,30.06,1.2,West,4.6,-,N/A,,Smoke,270,2012-11-20 04:30:00
10:30 AM,68.0,46.4,46,30.06,1.2,West,5.8,-,N/A,,Smoke,260,2012-11-20 05:00:00
11:00 AM,69.8,46.4,43,30.06,1.4,West,4.6,-,N/A,,Smoke,270,2012-11-20 05:30:00
11:30 AM,73.4,46.4,38,30.04,1.4,WNW,9.2,-,N/A,,Smoke,300,2012-11-20 06:00:00
12:00 PM,75.2,46.4,36,30.04,1.6,NW,6.9,-,N/A,,Smoke,320,2012-11-20 06:30:00
12:30 PM,75.2,46.4,36,30.04,1.6,NW,6.9,-,N/A,,Smoke,310,2012-11-20 07:00:00
1:00 PM,77.0,44.6,32,30.01,1.7,NW,9.2,-,N/A,,Smoke,320,2012-11-20 07:30:00
2:00 PM,78.8,44.6,30,29.98,2.2,WNW,9.2,-,N/A,,Haze,290,2012-11-20 08:30:00
2:30 PM,78.8,39.2,24,29.98,2.2,WNW,8.1,-,N/A,,Haze,300,2012-11-20 09:00:00
3:00 PM,78.8,39.2,24,29.95,2.2,West,8.1,-,N/A,,Haze,280,2012-11-20 09:30:00
3:30 PM,78.8,39.2,24,29.95,2.2,West,8.1,-,N/A,,Haze,280,2012-11-20 10:00:00
4:00 PM,78.8,39.2,24,29.95,2.5,West,8.1,-,N/A,,Haze,280,2012-11-20 10:30:00
5:00 PM,75.2,39.2,27,29.95,3.1,West,8.1,-,N/A,,Haze,280,2012-11-20 11:30:00
5:30 PM,71.6,42.8,35,29.95,3.1,West,8.1,-,N/A,,Haze,280,2012-11-20 12:00:00
6:00 PM,69.8,42.8,38,29.95,2.2,WSW,4.6,-,N/A,,Haze,240,2012-11-20 12:30:00
6:30 PM,69.8,44.6,40,29.95,-9999.0,WSW,4.6,-,N/A,,Haze,240,2012-11-20 13:00:00
7:00 PM,66.2,44.6,46,29.95,-9999.0,SW,3.5,-,N/A,,Haze,230,2012-11-20 13:30:00
8:00 PM,66.2,42.8,43,29.95,1.9,SW,2.3,-,N/A,,Haze,230,2012-11-20 14:30:00
8:30 PM,64.4,42.8,45,29.98,1.6,WSW,2.3,-,N/A,,Haze,250,2012-11-20 15:00:00
9:00 PM,64.4,42.8,45,29.98,1.4,SW,3.5,-,N/A,,Haze,230,2012-11-20 15:30:00
10:00 PM,62.6,44.6,52,29.98,1.2,Calm,Calm,-,N/A,,Haze,0,2012-11-20 16:30:00
10:30 PM,62.6,44.6,52,29.98,1.2,Calm,Calm,-,N/A,,Smoke,0,2012-11-20 17:00:00
11:00 PM,60.8,44.6,55,29.98,1.2,Calm,Calm,-,N/A,,Smoke,0,2012-11-20 17:30:00
11:30 PM,60.8,44.6,55,29.98,1.2,Calm,Calm,-,N/A,,Smoke,0,2012-11-20 18:00:00